| time (UTC) | temp F | wind direction | speed knots | gust knots | rain 1hr in | rain 24hr in | rain mn in | humidity % | barometer mb |
| 20260504214505 | 74 | 269 | 1.7 | 5.2 | 0.00 | 0.00 | 0.00 | 55 | 1010.1 |
| 20260504214005 | 73 | 188 | 2.6 | 4.3 | 0.00 | 0.00 | 0.00 | 51 | 1010.0 |
| 20260504213505 | 73 | 206 | 1.7 | 6.1 | 0.00 | 0.00 | 0.00 | 50 | 1009.9 |
| 20260504211505 | 72 | 152 | 1.7 | 6.1 | 0.00 | 0.00 | 0.00 | 53 | 1010.0 |
| 20260504211005 | 72 | 117 | 2.6 | 5.2 | 0.00 | 0.00 | 0.00 | 49 | 1010.1 |
| 20260504210505 | 72 | 211 | 1.7 | 5.2 | 0.00 | 0.00 | 0.00 | 52 | 1010.0 |
| 20260504210005 | 72 | 279 | 1.7 | 6.1 | 0.00 | 0.00 | 0.00 | 52 | 1010.1 |
| 20260504205505 | 71 | 290 | 1.7 | 6.1 | 0.00 | 0.00 | 0.00 | 53 | 1010.1 |
| 20260504205006 | 71 | 301 | 1.7 | 5.2 | 0.00 | 0.00 | 0.00 | 56 | 1010.2 |
| 20260504204505 | 71 | 241 | 1.7 | 6.1 | 0.00 | 0.00 | 0.00 | 57 | 1010.2 |
| 20260504203005 | 72 | 168 | 2.6 | 5.2 | 0.00 | 0.00 | 0.00 | 54 | 1010.3 |
| 20260504202005 | 72 | 126 | 1.7 | 5.2 | 0.00 | 0.00 | 0.00 | 59 | 1010.2 |
| 20260504201506 | 72 | 89 | 2.6 | 6.1 | 0.00 | 0.00 | 0.00 | 54 | 1010.3 |
| 20260504201006 | 71 | 135 | 0.9 | 7.0 | 0.00 | 0.00 | 0.00 | 58 | 1010.3 |
| 20260504200505 | 71 | 291 | 2.6 | 7.0 | 0.00 | 0.00 | 0.00 | 57 | 1010.3 |
| 20260504200008 | 71 | 309 | 1.7 | 5.2 | 0.00 | 0.00 | 0.00 | 60 | 1010.4 |
| 20260504195506 | 71 | 113 | 1.7 | 5.2 | 0.00 | 0.00 | 0.00 | 56 | 1010.4 |
| 20260504194506 | 70 | 157 | 1.7 | 6.1 | 0.00 | 0.00 | 0.00 | 59 | 1010.4 |
| 20260504194005 | 70 | 126 | 1.7 | 5.2 | 0.00 | 0.00 | 0.00 | 60 | 1010.4 |
| 20260504193505 | 70 | 174 | 1.7 | 5.2 | 0.00 | 0.00 | 0.00 | 59 | 1010.4 |
| 20260504193006 | 70 | 178 | 1.7 | 4.3 | 0.00 | 0.00 | 0.00 | 62 | 1010.4 |
| 20260504192504 | 70 | 314 | 1.7 | 4.3 | 0.00 | 0.00 | 0.00 | 60 | 1010.3 |
| 20260504192005 | 70 | 195 | 1.7 | 4.3 | 0.00 | 0.00 | 0.00 | 60 | 1010.3 |
| 20260504191505 | 69 | 178 | 2.6 | 6.1 | 0.00 | 0.00 | 0.00 | 60 | 1010.4 |
| 20260504191006 | 69 | 178 | 2.6 | 6.1 | 0.00 | 0.00 | 0.00 | 59 | 1010.4 |
| 20260504190505 | 69 | 254 | 0.9 | 5.2 | 0.00 | 0.00 | 0.00 | 59 | 1010.4 |
| 20260504185505 | 69 | 178 | 2.6 | 5.2 | 0.00 | 0.00 | 0.00 | 61 | 1010.5 |
| 20260504185006 | 69 | 200 | 1.7 | 5.2 | 0.00 | 0.00 | 0.00 | 61 | 1010.5 |
| 20260504184005 | 69 | 154 | 0.9 | 5.2 | 0.00 | 0.00 | 0.00 | 65 | 1010.4 |
| 20260504183505 | 68 | 139 | 1.7 | 6.1 | 0.00 | 0.00 | 0.00 | 64 | 1010.5 |
| 20260504183006 | 68 | 223 | 1.7 | 6.1 | 0.00 | 0.00 | 0.00 | 64 | 1010.5 |
| 20260504182505 | 68 | 301 | 2.6 | 5.2 | 0.00 | 0.00 | 0.00 | 64 | 1010.5 |
| 20260504182004 | 68 | 161 | 1.7 | 4.3 | 0.00 | 0.00 | 0.00 | 66 | 1010.5 |
| 20260504181505 | 67 | 178 | 1.7 | 4.3 | 0.00 | 0.00 | 0.00 | 67 | 1010.6 |
| 20260504181005 | 67 | 241 | 2.6 | 5.2 | 0.00 | 0.00 | 0.00 | 67 | 1010.5 |
| 20260504180505 | 66 | 303 | 3.5 | 5.2 | 0.00 | 0.00 | 0.00 | 66 | 1010.5 |
| 20260504180327 | 67 | 89 | 2.6 | 5.2 | 0.00 | 0.00 | 0.00 | 68 | 1010.4 |
| 20260504151006 | 56 | 1 | 0.9 | 2.6 | 0.00 | 0.00 | 0.00 | 81 | 1010.5 |
| 20260504150504 | 55 | 1 | 0.9 | 2.6 | 0.00 | 0.00 | 0.00 | 82 | 1010.5 |
| 20260504141004 | 50 | 89 | 0.9 | 1.7 | 0.00 | 0.00 | 0.00 | 92 | 1009.9 |
| 20260504140505 | 50 | 161 | 0.0 | 1.7 | 0.00 | 0.00 | 0.00 | 92 | 1009.9 |
| 20260504130504 | 49 | 331 | 0.0 | 0.9 | 0.00 | 0.00 | 0.00 | 91 | 1009.4 |
| 20260504100504 | 51 | 331 | 0.9 | 1.7 | 0.00 | 0.00 | 0.00 | 89 | 1009.4 |
| 20260504082005 | 52 | 344 | 0.9 | 1.7 | 0.00 | 0.00 | 0.00 | 86 | 1009.5 |
| 20260504081505 | 53 | 331 | 0.0 | 1.7 | 0.00 | 0.00 | 0.00 | 86 | 1009.5 |
| 20260504081004 | 53 | 314 | 0.9 | 1.7 | 0.00 | 0.00 | 0.00 | 85 | 1009.5 |
| 20260504080504 | 53 | 340 | 0.9 | 1.7 | 0.00 | 0.00 | 0.00 | 86 | 1009.5 |
| 20260504045505 | 57 | 324 | 0.9 | 1.7 | 0.00 | 0.00 | 0.00 | 80 | 1009.5 |
| 20260504045005 | 57 | 344 | 0.9 | 1.7 | 0.00 | 0.00 | 0.00 | 79 | 1009.6 |
| 20260504044505 | 57 | 1 | 0.9 | 1.7 | 0.00 | 0.00 | 0.00 | 79 | 1009.5 |
| 20260504044005 | 57 | 1 | 0.0 | 2.6 | 0.00 | 0.00 | 0.00 | 78 | 1009.6 |
| 20260504043006 | 58 | 269 | 0.9 | 1.7 | 0.00 | 0.00 | 0.00 | 78 | 1009.6 |
| 20260504042505 | 58 | 1 | 0.9 | 1.7 | 0.00 | 0.00 | 0.00 | 77 | 1009.5 |
| 20260504042005 | 58 | 1 | 0.0 | 1.7 | 0.00 | 0.00 | 0.00 | 76 | 1009.6 |
| 20260504041005 | 59 | 331 | 0.9 | 1.7 | 0.00 | 0.00 | 0.00 | 76 | 1009.6 |
| 20260504040506 | 59 | 1 | 0.0 | 0.9 | 0.00 | 0.00 | 0.00 | 76 | 1009.7 |
| 20260504040006 | 59 | 1 | 0.0 | 1.7 | 0.00 | 0.00 | 0.00 | 76 | 1009.6 |
| 20260504035006 | 60 | 340 | 0.9 | 1.7 | 0.00 | 0.00 | 0.00 | 74 | 1009.6 |
| 20260504034505 | 61 | 336 | 0.9 | 1.7 | 0.00 | 0.00 | 0.00 | 72 | 1009.6 |
| 20260504033505 | 62 | 1 | 0.0 | 1.7 | 0.00 | 0.00 | 0.00 | 72 | 1009.7 |
| 20260504033007 | 62 | 1 | 0.9 | 1.7 | 0.00 | 0.00 | 0.00 | 70 | 1009.7 |
| 20260504032505 | 63 | 1 | 0.0 | 1.7 | 0.00 | 0.00 | 0.00 | 68 | 1009.6 |
| 20260504032005 | 63 | 340 | 0.9 | 1.7 | 0.00 | 0.00 | 0.00 | 67 | 1009.6 |
| 20260504031505 | 64 | 46 | 0.0 | 1.7 | 0.00 | 0.00 | 0.00 | 66 | 1009.5 |
| 20260504031005 | 64 | 286 | 0.0 | 0.9 | 0.00 | 0.00 | 0.00 | 65 | 1009.5 |
| 20260504030505 | 65 | 89 | 0.0 | 0.9 | 0.00 | 0.00 | 0.00 | 64 | 1009.6 |
| 20260504030007 | 66 | 46 | 0.0 | 0.9 | 0.00 | 0.00 | 0.00 | 63 | 1009.5 |
| 20260504025505 | 66 | 135 | 0.0 | 1.7 | 0.00 | 0.00 | 0.00 | 63 | 1009.6 |
| 20260504025008 | 67 | 152 | 0.0 | 1.7 | 0.00 | 0.00 | 0.00 | 62 | 1009.5 |
| 20260504024007 | 68 | 269 | 0.9 | 1.7 | 0.00 | 0.00 | 0.00 | 60 | 1009.6 |
| 20260504023504 | 68 | 286 | 0.0 | 2.6 | 0.00 | 0.00 | 0.00 | 59 | 1009.5 |
| 20260504023006 | 69 | 269 | 0.9 | 3.5 | 0.00 | 0.00 | 0.00 | 57 | 1009.6 |
| 20260504022505 | 69 | 296 | 0.9 | 3.5 | 0.00 | 0.00 | 0.00 | 59 | 1009.6 |
| 20260504022005 | 69 | 178 | 0.0 | 1.7 | 0.00 | 0.00 | 0.00 | 59 | 1009.6 |
| 20260504021505 | 69 | 46 | 0.9 | 2.6 | 0.00 | 0.00 | 0.00 | 58 | 1009.7 |
| 20260504021005 | 69 | 89 | 0.9 | 2.6 | 0.00 | 0.00 | 0.00 | 57 | 1009.8 |
| 20260504020504 | 69 | 1 | 0.9 | 2.6 | 0.00 | 0.00 | 0.00 | 57 | 1009.9 |
| 20260504020006 | 69 | 152 | 0.9 | 2.6 | 0.00 | 0.00 | 0.00 | 56 | 1010.0 |
| 20260504015504 | 70 | 178 | 0.9 | 2.6 | 0.00 | 0.00 | 0.00 | 55 | 1010.1 |
| 20260504015006 | 70 | 178 | 0.9 | 2.6 | 0.00 | 0.00 | 0.00 | 55 | 1010.0 |
| 20260504014505 | 70 | 206 | 0.9 | 3.5 | 0.00 | 0.00 | 0.00 | 55 | 1010.1 |
| 20260504014005 | 71 | 193 | 1.7 | 3.5 | 0.00 | 0.00 | 0.00 | 54 | 1010.0 |
| 20260504013505 | 71 | 314 | 0.9 | 4.3 | 0.00 | 0.00 | 0.00 | 55 | 1010.1 |
| 20260504013006 | 72 | 269 | 1.7 | 4.3 | 0.00 | 0.00 | 0.00 | 53 | 1010.1 |
| 20260504012005 | 73 | 138 | 2.6 | 3.5 | 0.00 | 0.00 | 0.00 | 54 | 1010.2 |
| 20260504011505 | 74 | 278 | 1.7 | 3.5 | 0.00 | 0.00 | 0.00 | 52 | 1010.2 |
| 20260504011005 | 74 | 206 | 0.9 | 3.5 | 0.00 | 0.00 | 0.00 | 52 | 1010.2 |
| 20260504010505 | 74 | 306 | 1.7 | 3.5 | 0.00 | 0.00 | 0.00 | 52 | 1010.3 |
| 20260504010006 | 74 | 178 | 0.9 | 2.6 | 0.00 | 0.00 | 0.00 | 53 | 1010.4 |
| 20260504005505 | 74 | 223 | 1.7 | 2.6 | 0.00 | 0.00 | 0.00 | 53 | 1010.4 |
| 20260504005005 | 74 | 303 | 0.9 | 2.6 | 0.00 | 0.00 | 0.00 | 60 | 1010.5 |
| 20260504004506 | 73 | 108 | 0.9 | 3.5 | 0.00 | 0.00 | 0.00 | 55 | 1010.5 |
| 20260504004005 | 73 | 283 | 1.7 | 4.3 | 0.00 | 0.00 | 0.00 | 54 | 1010.6 |
| 20260504003505 | 73 | 178 | 2.6 | 4.3 | 0.00 | 0.00 | 0.00 | 55 | 1010.6 |
| 20260504003006 | 73 | 195 | 1.7 | 4.3 | 0.00 | 0.00 | 0.00 | 57 | 1010.6 |
| 20260504002506 | 73 | 135 | 1.7 | 5.2 | 0.00 | 0.00 | 0.00 | 56 | 1010.6 |
| 20260504002005 | 74 | 197 | 2.6 | 5.2 | 0.00 | 0.00 | 0.00 | 54 | 1010.6 |
| 20260504001505 | 75 | 135 | 1.7 | 4.3 | 0.00 | 0.00 | 0.00 | 53 | 1010.6 |
| 20260504001005 | 75 | 296 | 0.9 | 4.3 | 0.00 | 0.00 | 0.00 | 53 | 1010.7 |
| 20260504000505 | 74 | 117 | 2.6 | 5.2 | 0.00 | 0.00 | 0.00 | 57 | 1010.6 |
| 20260504000007 | 74 | 124 | 1.7 | 5.2 | 0.00 | 0.00 | 0.00 | 60 | 1010.7 |
| 20260503235005 | 74 | 100 | 2.6 | 6.1 | 0.00 | 0.00 | 0.00 | 55 | 1010.9 |
| 20260503234505 | 75 | 124 | 2.6 | 6.1 | 0.00 | 0.00 | 0.00 | 54 | 1011.0 |
| 20260503234006 | 75 | 122 | 2.6 | 6.1 | 0.00 | 0.00 | 0.00 | 55 | 1010.9 |
| 20260503233504 | 76 | 130 | 1.7 | 7.0 | 0.00 | 0.00 | 0.00 | 55 | 1010.9 |
| 20260503233005 | 77 | 145 | 2.6 | 7.0 | 0.00 | 0.00 | 0.00 | 51 | 1011.0 |
| 20260503232504 | 77 | 250 | 1.7 | 5.2 | 0.00 | 0.00 | 0.00 | 47 | 1011.0 |
| 20260503232007 | 77 | 1 | 1.7 | 5.2 | 0.00 | 0.00 | 0.00 | 45 | 1011.1 |
| 20260503231505 | 77 | 335 | 2.6 | 6.1 | 0.00 | 0.00 | 0.00 | 47 | 1011.1 |
| 20260503231005 | 76 | 300 | 2.6 | 6.1 | 0.00 | 0.00 | 0.00 | 47 | 1011.3 |
| 20260503230505 | 76 | 1 | 3.5 | 6.1 | 0.00 | 0.00 | 0.00 | 47 | 1011.3 |
| 20260503230006 | 77 | 284 | 2.6 | 6.1 | 0.00 | 0.00 | 0.00 | 49 | 1011.5 |
| 20260503225505 | 76 | 178 | 2.6 | 6.1 | 0.00 | 0.00 | 0.00 | 50 | 1011.5 |
| 20260503225005 | 76 | 1 | 0.9 | 6.1 | 0.00 | 0.00 | 0.00 | 50 | 1011.6 |
| 20260503224509 | 76 | 344 | 2.6 | 6.1 | 0.00 | 0.00 | 0.00 | 45 | 1011.7 |
| 20260503224005 | 77 | 354 | 2.6 | 7.0 | 0.00 | 0.00 | 0.00 | 42 | 1011.7 |
| 20260503223505 | 77 | 303 | 2.6 | 7.0 | 0.00 | 0.00 | 0.00 | 45 | 1011.8 |
| 20260503222505 | 77 | 335 | 2.6 | 4.3 | 0.00 | 0.00 | 0.00 | 49 | 1011.8 |
| 20260503221505 | 76 | 276 | 2.6 | 5.2 | 0.00 | 0.00 | 0.00 | 46 | 1012.0 |
| 20260503221006 | 75 | 1 | 1.7 | 5.2 | 0.00 | 0.00 | 0.00 | 49 | 1012.0 |
| 20260503220505 | 75 | 1 | 2.6 | 4.3 | 0.00 | 0.00 | 0.00 | 45 | 1012.0 |
| 20260503220010 | 75 | 264 | 1.7 | 5.2 | 0.00 | 0.00 | 0.00 | 47 | 1012.1 |
| 20260503215505 | 74 | 279 | 2.6 | 6.1 | 0.00 | 0.00 | 0.00 | 47 | 1012.2 |